Find Starlink 36825

NORAD ID: 68041 Int'l Des: 2026-041 Owner: SPXS Country: US Constellation: starlink operational
LEOCIRCULAR

Live-Position

3D-Globus wird geladen...

Über Starlink 36825

Beschreibung wird geladen...

Nächste Überflüge

Passes for default location (London). Set your location on the main map for personalized predictions.

Höhenverlauf

Loading altitude history...

Zweizeiliger Elementsatz

1 68041U 26041B 26106.91668981 -.01875877 00000-0 -45577-1 0 9999
2 68041 53.1594 232.1898 0000862 79.2649 243.8128 15.43692999 6038
Epoch: 16. Apr. 2026 • Age: 11 hours

Aktueller Status

Höhe 446.2 km
Geschwindigkeit 7.64 km/s
Subsatellitenpunkt -19.57°S, 124.9°W
Startdatum 2. März 2026
Alter 0.1 years
Typ internet

Technische Details

Klassifizierung Payload
Masse 575.00 kg
Trockenmasse 530.00 kg
Gesamtmasse 575.00 kg
Länge 0.30 m
Durchmesser 4.10 m
Spannweite 29.00 m
Form Box + pan
Hersteller SPXS
Bus-Typ Starlink V2MO
Phasenstatus In Orbit
Besitzer/Staat SPXS/US

Most Searched